Location: Burbank
(38.7788°N, 114.0429°W)
Time: 10:47:17
(UTC+00:00)

Vanguard 2 - Pass Details

Date: 15 May 2026
Orbit: 553 x 2894 km, 32.9° (Epoch: 11 June)

Event Time Altitude Azimuth Distance (km) Brightness Sun altitude
Rises 08:03:31 0° 221° (SW) 6,094 - -31.9°
Reaches altitude 10° 08:07:32 10° 215° (SW) 5,310 - -31.7°
Exits shadow 08:20:08 42° 168° (SSE) 3,677 10.4 -31.2°
Maximum altitude 08:22:43 44° 150° (SSE) 3,619 10.5 -31.1°
Drops below altitude 10° 08:37:58 10° 86° (E) 5,351 12.0 -30.3°
Sets 08:41:59 0° 80° (E) 6,147 12.5 -30.1°
